Total_Precipitation_Accumulation
1.87 1.88 1.86 1.88 1.98 2.03 2.17 2.46 2.60 2.58 2.57 2.70 2.77 2.76 2.73 2.57 2.30 2.07 1.93 1.90 1.91 2.05 2.30 2.21 2.48 2.63 2.63 2.56 2.61 2.67 2.55 2.37 2.61 2.39 1.75 1.25 0.93 0.86 0.78 0.80 0.83 0.85 1.02
2.04 2.09 2.05 2.06 2.12 2.15 2.30 2.63 2.82 2.90 2.89 3.09 3.24 3.16 3.08 2.79 2.58 2.27 2.08 2.03 2.15 2.21 2.32 2.60 2.76 2.84 2.77 2.64 2.66 2.70 2.48 2.18 2.62 2.60 2.24 1.59 1.12 0.85 0.68 0.82 0.82 0.88 1.21
1.56 2.00 2.15 2.37 2.23 2.15 2.27 2.50 2.77 2.92 3.00 3.13 3.31 3.20 3.22 3.01 2.76 2.52 2.34 2.17 2.20 2.21 2.37 2.62 2.83 2.82 2.70 2.56 2.61 2.69 2.58 2.31 2.40 2.63 2.71 2.17 1.57 1.23 0.84 0.83 0.92 1.08 1.22
1.39 1.74 1.90 1.91 2.01 2.05 2.04 2.22 2.48 2.69 2.89 3.09 3.14 3.15 3.09 2.91 2.76 2.62 2.26 2.11 2.04 2.08 2.17 2.24 2.43 2.58 2.54 2.46 2.39 2.51 2.58 2.50 2.30 2.47 2.59 2.46 2.19 1.87 1.27 0.95 0.94 1.14 1.25
1.16 1.36 1.43 1.50 1.59 1.65 1.86 2.20 2.41 2.57 2.66 2.71 2.72 2.81 2.72 2.69 2.68 2.52 2.31 2.21 2.19 2.13 2.02 2.09 2.31 2.41 2.44 2.30 2.20 2.29 2.39 2.36 2.26 2.36 2.40 2.42 2.36 2.17 1.90 1.39 1.22 1.15 1.09
1.08 1.23 1.35 1.44 1.50 1.65 1.92 2.18 2.34 2.46 2.47 2.46 2.51 2.58 2.53 2.53 2.48 2.33 2.26 2.11 2.02 1.89 1.84 1.92 2.12 2.21 2.25 2.22 2.19 2.14 2.12 2.14 2.12 2.16 2.30 2.41 2.31 2.22 2.18 1.72 1.48 1.34 0.96
1.23 1.35 1.42 1.40 1.48 1.59 1.74 1.88 2.04 2.17 2.13 2.08 2.17 2.20 2.20 2.15 2.09 2.04 2.01 1.92 1.78 1.60 1.56 1.58 1.63 1.70 1.81 1.95 2.09 2.04 1.98 2.00 1.99 1.97 2.05 2.19 2.18 2.24 2.27 2.03 1.71 1.52 1.16
1.49 1.64 1.61 1.54 1.49 1.49 1.51 1.52 1.59 1.66 1.66 1.72 1.79 1.77 1.75 1.73 1.69 1.73 1.72 1.66 1.56 1.46 1.42 1.37 1.30 1.29 1.36 1.52 1.79 1.90 1.92 1.96 1.92 1.80 1.88 1.91 1.85 1.92 2.03 2.09 2.00 1.69 1.46
1.10 1.37 1.37 1.28 1.24 1.21 1.17 1.16 1.13 1.08 1.09 1.13 1.19 1.23 1.26 1.29 1.29 1.31 1.33 1.31 1.26 1.17 1.13 1.11 1.11 1.14 1.12 1.16 1.32 1.52 1.68 1.80 1.80 1.78 1.77 1.73 1.67 1.66 1.71 1.90 1.99 1.89 1.68
0.85 0.88 0.91 0.95 0.97 0.97 0.94 0.90 0.83 0.80 0.81 0.80 0.81 0.81 0.83 0.83 0.86 0.86 0.85 0.89 0.91 0.91 0.91 0.93 0.96 1.02 1.04 1.04 1.15 1.28 1.44 1.57 1.60 1.58 1.58 1.62 1.57 1.57 1.53 1.58 1.77 1.91 1.95
0.59 0.58 0.57 0.61 0.72 0.80 0.78 0.72 0.70 0.68 0.66 0.65 0.65 0.61 0.61 0.61 0.61 0.62 0.65 0.70 0.74 0.73 0.76 0.80 0.82 0.81 0.81 0.85 0.90 0.97 1.07 1.19 1.27 1.28 1.32 1.37 1.41 1.51 1.40 1.43 1.56 1.75 1.96
0.38 0.37 0.40 0.44 0.47 0.51 0.52 0.53 0.54 0.58 0.56 0.54 0.51 0.49 0.49 0.48 0.49 0.51 0.57 0.63 0.69 0.73 0.80 0.86 0.89 0.84 0.80 0.79 0.78 0.78 0.89 1.04 1.11 1.23 1.33 1.36 1.44 1.54 1.42 1.43 1.54 1.76 1.98
0.33 0.32 0.33 0.36 0.38 0.41 0.45 0.47 0.50 0.54 0.50 0.46 0.46 0.49 0.50 0.51 0.50 0.52 0.55 0.58 0.60 0.64 0.72 0.85 0.95 0.93 0.89 0.85 0.81 0.78 0.78 0.85 0.96 1.08 1.26 1.38 1.52 1.61 1.59 1.55 1.65 1.84 2.06
0.32 0.34 0.34 0.35 0.40 0.49 0.52 0.53 0.57 0.54 0.50 0.46 0.45 0.45 0.44 0.44 0.45 0.47 0.50 0.53 0.53 0.58 0.62 0.67 0.78 0.83 0.86 0.88 0.87 0.86 0.85 0.85 0.85 0.84 0.85 0.91 1.05 1.19 1.38 1.49 1.59 1.69 1.94
0.26 0.27 0.30 0.35 0.40 0.46 0.51 0.53 0.58 0.55 0.54 0.56 0.54 0.50 0.49 0.53 0.47 0.47 0.54 0.53 0.49 0.49 0.55 0.55 0.60 0.67 0.71 0.74 0.77 0.77 0.75 0.79 0.85 0.81 0.74 0.68 0.67 0.73 0.83 0.92 1.18 1.39 1.59
0.25 0.26 0.31 0.36 0.37 0.41 0.44 0.48 0.50 0.52 0.55 0.61 0.64 0.59 0.55 0.53 0.52 0.47 0.48 0.48 0.47 0.47 0.50 0.54 0.55 0.59 0.57 0.62 0.66 0.66 0.64 0.62 0.65 0.70 0.71 0.67 0.62 0.54 0.53 0.60 0.74 0.94 1.18
0.19 0.21 0.25 0.29 0.29 0.33 0.44 0.48 0.45 0.46 0.53 0.62 0.70 0.76 0.69 0.62 0.56 0.48 0.47 0.48 0.52 0.56 0.60 0.60 0.57 0.54 0.54 0.53 0.55 0.62 0.62 0.61 0.57 0.56 0.59 0.54 0.51 0.51 0.45 0.48 0.51 0.55 0.62
0.13 0.18 0.19 0.17 0.18 0.20 0.28 0.39 0.45 0.49 0.59 0.68 0.72 0.79 0.73 0.64 0.55 0.51 0.53 0.57 0.59 0.59 0.61 0.65 0.68 0.67 0.57 0.47 0.43 0.49 0.56 0.63 0.61 0.58 0.53 0.52 0.51 0.51 0.50 0.48 0.49 0.45 0.42
0.09 0.14 0.17 0.15 0.17 0.19 0.22 0.29 0.38 0.50 0.63 0.71 0.77 0.76 0.75 0.69 0.63 0.59 0.61 0.62 0.62 0.58 0.53 0.53 0.60 0.69 0.69 0.54 0.43 0.40 0.43 0.50 0.53 0.56 0.55 0.52 0.51 0.52 0.46 0.47 0.50 0.47 0.43
0.16 0.22 0.26 0.30 0.31 0.34 0.32 0.36 0.42 0.52 0.62 0.68 0.72 0.75 0.82 0.85 0.81 0.75 0.72 0.69 0.70 0.65 0.61 0.55 0.59 0.61 0.66 0.57 0.44 0.40 0.41 0.46 0.51 0.59 0.60 0.50 0.44 0.45 0.43 0.45 0.50 0.48 0.44
0.19 0.28 0.36 0.49 0.57 0.63 0.62 0.60 0.59 0.63 0.66 0.65 0.68 0.74 0.81 0.85 0.84 0.86 0.86 0.84 0.79 0.78 0.76 0.67 0.65 0.68 0.66 0.57 0.39 0.35 0.40 0.49 0.55 0.57 0.59 0.55 0.41 0.35 0.39 0.44 0.45 0.42 0.43
0.12 0.20 0.35 0.46 0.56 0.70 0.84 0.91 0.87 0.78 0.75 0.71 0.74 0.78 0.84 0.82 0.80 0.93 0.94 0.94 0.96 0.95 0.91 0.86 0.82 0.80 0.77 0.61 0.47 0.38 0.40 0.48 0.57 0.60 0.59 0.58 0.43 0.34 0.35 0.41 0.46 0.40 0.38
0.10 0.15 0.25 0.38 0.44 0.51 0.68 0.92 0.93 0.87 0.87 0.87 0.91 0.88 0.88 0.98 1.05 1.10 1.06 1.05 1.06 1.04 0.99 0.98 0.96 0.92 0.91 0.80 0.54 0.44 0.44 0.48 0.52 0.59 0.56 0.52 0.46 0.40 0.39 0.41 0.43 0.39 0.37
0.14 0.17 0.25 0.33 0.39 0.47 0.62 0.80 0.80 0.79 0.90 1.02 1.05 1.00 1.01 1.06 1.14 1.26 1.18 1.16 1.15 1.12 1.08 1.10 1.09 1.07 1.05 1.00 0.79 0.62 0.57 0.56 0.57 0.58 0.55 0.48 0.48 0.50 0.50 0.49 0.43 0.42 0.46
0.22 0.24 0.30 0.36 0.42 0.51 0.62 0.68 0.72 0.81 0.97 1.01 0.99 1.00 1.05 1.13 1.21 1.25 1.22 1.13 1.11 1.01 1.02 1.05 1.05 1.06 1.05 0.95 0.79 0.71 0.72 0.74 0.74 0.72 0.68 0.64 0.62 0.63 0.65 0.64 0.61 0.59 0.61
0.18 0.20 0.25 0.29 0.32 0.39 0.49 0.55 0.63 0.81 1.02 1.05 1.03 0.99 0.98 1.05 1.12 1.16 1.13 0.97 0.86 0.74 0.69 0.75 0.78 0.81 0.79 0.78 0.72 0.64 0.66 0.69 0.70 0.73 0.77 0.78 0.77 0.80 0.82 0.82 0.79 0.73 0.72